{"data":{"norad_id":54168,"intl_designator":"2022-141M","name":"STARLINK-5245","alt_names":[],"object_type":"PAYLOAD","status":"ACTIVE","operator":null,"country":"US","launch_date":"2022-10-28","launch_site_code":"AFWTR","launch_vehicle":null,"mission":null,"orbit_class":"UNKNOWN","rcs_meters":null,"size_class":null,"mass_kg":null,"dimensions":null,"purposes":["comms"],"wikipedia_slug":null,"has_3d_model":false,"image_url":null,"decayed_at":null,"tle_current":{"epoch":"2026-09-20T10:46:11.933472Z","epoch_age_seconds":93778,"freshness":"FRESH","line1":"1 54168U 22141M   26263.44874923 -.00002036  00000+0 -49159-4 0  9998","line2":"2 54168  53.1610 194.1345 0001754  67.2155 292.9033 15.34375636215472","mean_motion":15.34375636,"eccentricity":0.0001754,"inclination_deg":53.161,"raan_deg":194.1345,"arg_perigee_deg":67.2155,"mean_anomaly_deg":292.9033,"bstar":-4.9159e-5,"rev_number":21547,"period_min":93.849248268434,"perigee_km":461.57576002792,"apogee_km":463.97555218768,"semimajor_km":6840.9126561078,"source":"CELESTRAK","updated_at":"2026-09-21T09:00:33.089847Z"}}}